STARLINK-32290 (60359 NORAD) Tracking and Keplerian Element Data

This shows tracking and keplerian element data for the satellite.

Feedback or suggestion? Click here.




ElementValue
Catalog60359
NameSTARLINK-32290
Epoch Orbit1186
Epoch Day286.41368876
Epoch Year2024
RAAN179.342
Inclination53.1595
Eccentricity5.34E-05
Argument of Perigee140.9373
Mean Anonmoly219.167
Mean Motion15.39649972
Decay Rate-7.13E-05
L11 60359U 24138E 24286.41368876 -.00007130 00000+0 -16828-3 0 9996
L22 60359 53.1595 179.3420 0000534 140.9373 219.1670 15.39649972 11865



Live tracking and technical data element details for STARLINK-32290 (NORAD 60359). STARLINK-32290 can be tracked NOW for your location showing map with azimuth and elevation plus other details from your city location.







IsCatalogInMostPopularTable: catalog: 60359, numindb: 8
Update: records affected: 1



GetName: 60359 STARLINK-32290

Hit Count: updated at: Tue, 03 Dec 2024 02:19:57 GMT